Find STARLINK-37543

NORAD ID: 68911 Constellation: starlink operational
LEOCIRCULARRETROGRADE

实时位置

正在加载3D地球...

关于 STARLINK-37543

正在加载描述...

即将过境

Passes for default location (London). Set your location on the main map for personalized predictions.

高度历史

Loading altitude history...

两行轨道根数

1 68911U 26097S 26125.50001156 -.02048048 12035-2 -48299-2 0 9998
2 68911 97.2870 320.4963 0001428 86.4224 150.9452 15.96981164 2062
Epoch: May 5, 2026 • Age: 9 hours